Valley Farms, AZ

7:42 PM MST on February 22, 2017 (GMT -0700)
Coolidge Muni, Coolidge

Weather History for KP08 - January, 2014

Change the Weather History Date:

Friday, January 31, 2014

  Actual Average (KCGZ) Record (KCGZ)
Temperature  
Mean Temperature 63 °F -  
Max Temperature 69 °F 64 °F 82 °F (2003)
Min Temperature 57 °F 38 °F 24 °F (2002)
Degree Days  
Heating Degree Days 2    
Growing Degree Days 13 (Base 50)    
Moisture  
Dew Point 36 °F    
Average Humidity 37    
Maximum Humidity 48    
Minimum Humidity 26    
Precipitation  
Precipitation 0.00 in - - ()
Sea Level Pressure  
Sea Level Pressure 29.84 in    
Wind  
Wind Speed 13 mph (West)    
Max Wind Speed 18 mph    
Max Gust Speed 28 mph    
Visibility 10 miles    
Events      
Averages and records for this station are not official NWS values.
T = Trace of Precipitation, MM = Missing Value Source: NWS Daily Summary

Daily Weather History Graph

Daily Weather History Graph

Search for Another Location

Airport or City:

Trip Planner

Search our weather history database for the weather conditions in past years. The results will help you decide how hot, cold, wet, or windy it might be!

Date:

Astronomy

Jan. 31, 2014 Rise Set
Actual Time 7:21 AM MST 5:57 PM MST
Civil Twilight 6:55 AM MST 6:23 PM MST
Nautical Twilight 6:25 AM MST 6:52 PM MST
Astronomical Twilight 5:56 AM MST 7:21 PM MST
Moon 7:39 AM MST (1/31) 7:18 PM MST (1/31)
Length of Visible Light 11h 27m
Length of Day
10h 35m
New Moon, 1% of the Moon is Illuminated
Jan 31
New Moon
Feb 6
First Quarter
Feb 14
Full
Feb 22
Last Quarter
Mar 1
New

Hourly Weather History & Observations

Time (MST) Temp. Dew Point Humidity Pressure Visibility Wind Dir Wind Speed Gust Speed Precip Events Conditions
10:35 AM 66.2 °F 30.2 °F 26% 29.89 in 10.0 mi SW 13.8 mph - N/A   Mostly Cloudy
10:55 AM 66.2 °F 30.2 °F 26% 29.89 in 10.0 mi SW 17.3 mph 25.3 mph N/A   Scattered Clouds
11:15 AM 68.0 °F 32.0 °F 26% 29.89 in 10.0 mi SW 18.4 mph - N/A   Scattered Clouds
11:35 AM 68.0 °F 33.8 °F 28% 29.89 in 9.0 mi SW 18.4 mph 27.6 mph N/A   Mostly Cloudy
11:55 AM 68.0 °F 33.8 °F 28% 29.89 in 10.0 mi WSW 15.0 mph 23.0 mph N/A   Mostly Cloudy
12:15 PM 68.0 °F 33.8 °F 28% 29.88 in 10.0 mi WSW 13.8 mph - N/A   Overcast
12:35 PM 68.0 °F 35.6 °F 30% 29.87 in 10.0 mi West 15.0 mph 21.9 mph N/A   Mostly Cloudy
12:55 PM 68.0 °F 35.6 °F 30% 29.86 in 10.0 mi WSW 16.1 mph - N/A   Partly Cloudy
1:15 PM 68.0 °F 37.4 °F 33% 29.84 in 10.0 mi West 13.8 mph 20.7 mph N/A   Partly Cloudy
1:35 PM 68.0 °F 37.4 °F 33% 29.83 in 10.0 mi WSW 13.8 mph - N/A   Partly Cloudy
1:55 PM 69.8 °F 37.4 °F 31% 29.83 in 10.0 mi West 18.4 mph - N/A   Clear
2:15 PM 68.0 °F 37.4 °F 33% 29.82 in 10.0 mi WNW 15.0 mph - N/A   Partly Cloudy
2:35 PM 68.0 °F 37.4 °F 33% 29.82 in 10.0 mi West 17.3 mph - N/A   Clear
2:55 PM 68.0 °F 37.4 °F 33% 29.81 in 10.0 mi West 15.0 mph 21.9 mph N/A   Clear
3:15 PM 68.0 °F 37.4 °F 33% 29.82 in 10.0 mi WNW 15.0 mph 23.0 mph N/A   Clear
3:35 PM 66.2 °F 35.6 °F 32% 29.81 in 10.0 mi WNW 18.4 mph - N/A   Clear
3:55 PM 66.2 °F 35.6 °F 32% 29.81 in 10.0 mi WNW 11.5 mph 18.4 mph N/A   Clear
4:15 PM 66.2 °F 35.6 °F 32% 29.81 in 10.0 mi WNW 10.4 mph - N/A   Clear
4:35 PM 66.2 °F 35.6 °F 32% 29.82 in 10.0 mi WNW 11.5 mph - N/A   Clear
4:55 PM 64.4 °F 35.6 °F 34% 29.82 in 10.0 mi NW 9.2 mph 16.1 mph N/A   Partly Cloudy
5:15 PM 64.4 °F 35.6 °F 34% 29.82 in 10.0 mi NW 9.2 mph 16.1 mph N/A   Partly Cloudy
5:35 PM 64.4 °F 37.4 °F 37% 29.82 in 10.0 mi NW 10.4 mph - N/A   Clear
5:55 PM 62.6 °F 37.4 °F 39% 29.82 in 10.0 mi WNW 9.2 mph - N/A   Partly Cloudy
6:15 PM 60.8 °F 37.4 °F 42% 29.82 in 10.0 mi West 5.8 mph - N/A   Clear
6:35 PM 60.8 °F 37.4 °F 42% 29.83 in 10.0 mi WNW 3.5 mph - N/A   Scattered Clouds
6:55 PM 59.0 °F 35.6 °F 42% 29.84 in 10.0 mi WNW 5.8 mph - N/A   Mostly Cloudy
7:15 PM 59.0 °F 35.6 °F 42% 29.84 in 10.0 mi West 4.6 mph - N/A   Mostly Cloudy
7:25 PM 59.0 °F 35.6 °F 42% 29.84 in 10.0 mi West 4.6 mph - N/A   Mostly Cloudy
8:15 PM 59.0 °F 35.6 °F 42% 29.85 in 10.0 mi WSW 5.8 mph - N/A   Overcast
8:35 PM 59.0 °F 35.6 °F 42% 29.84 in 10.0 mi West 5.8 mph - N/A   Overcast
8:55 PM 59.0 °F 35.6 °F 42% 29.84 in 10.0 mi West 5.8 mph - N/A   Overcast
9:15 PM 59.0 °F 35.6 °F 42% 29.84 in 10.0 mi West 5.8 mph - N/A   Overcast
9:30 PM 59.0 °F 35.6 °F 42% 29.83 in 10.0 mi WSW 5.8 mph - N/A   Overcast
9:50 PM 59.0 °F 35.6 °F 42% 29.84 in 10.0 mi SW 5.8 mph - N/A   Overcast
10:15 PM 59.0 °F 35.6 °F 42% 29.84 in 10.0 mi SW 5.8 mph - N/A   Overcast
10:30 PM 57.2 °F 35.6 °F 44% 29.85 in 10.0 mi SW 6.9 mph - N/A   Overcast
10:55 PM 57.2 °F 37.4 °F 48% 29.84 in 10.0 mi SSW 6.9 mph - N/A   Overcast
11:15 PM 57.2 °F 37.4 °F 48% 29.85 in 10.0 mi SW 6.9 mph - N/A   Overcast
11:35 PM 57.2 °F 37.4 °F 48% 29.85 in 10.0 mi WSW 8.1 mph - N/A   Overcast
11:55 PM 57.2 °F 37.4 °F 48% 29.85 in 10.0 mi SSW 5.8 mph - N/A   Overcast